Regional Weather Roundup
Issued by NWS Northern Indiana

Home | Current Version | Previous Version | Graphics & Text | Print | Product List | Glossary On
Versions: 1 2 3 4 5 6 7 8 9 10 11 12 13 14 15 16 17 18 19 20 21 22 23 24 25 26 27 28 29 30 31 32 33 34 35 36 37 38 39 40 41 42 43 44 45 46 47 48 49 50
000
ASUS43 KIWX 221600
RWRIWX

KIWX WEATHER ROUNDUP
NATIONAL WEATHER SERVICE NORTHERN INDIANA
1100 AM EST WED FEB 22 2017

NOTE: "FAIR" INDICATES FEW OR NO CLOUDS BELOW 12,000 FEET WITH NO
SIGNIFICANT WEATHER AND/OR OBSTRUCTIONS TO VISIBILITY.

* THESE STATIONS ARE NOT UNDER NWS QUALITY CONTROL. THEY ALSO MAY NOT
  REPORT WEATHER SUCH AS PRECIPITATION OR FOG.

INZ001>027-221700-
NORTHERN INDIANA

CITY           SKY/WX    TMP DP  RH WIND       PRES   REMARKS
GARY*          CLOUDY    55  54  94 SW7       29.81S FOG
MICHIGAN CITY* CLOUDY    57  54  88 S9        29.81S
LAPORTE*       CLOUDY    54  53  97 S9        29.82S FOG
KNOX*          CLOUDY    55  41  58 S13       29.82S
SOUTH BEND     CLOUDY    56  53  90 SW10      29.83R FOG
ELKHART*       CLOUDY    55  54  94 S8        29.82F FOG
GOSHEN         CLOUDY    58  53  84 SW10      29.83F HAZE
WARSAW*        CLOUDY    55  52  88 S7        29.84S FOG
ANGOLA*        CLOUDY    55  55 100 S7        29.83F
FORT WAYNE     CLOUDY    57  53  86 SW9       29.86S FOG

$$
INZ028>050-221700-
CENTRAL INDIANA

CITY           SKY/WX    TMP DP  RH WIND       PRES   REMARKS
LAFAYETTE      CLOUDY    54  54 100 S6        29.84F FOG
KOKOMO*        CLOUDY    57  56  96 SW9       29.87F FOG
MUNCIE*        CLOUDY    59  54  83 S8        29.87F HAZE
INDIANAPOLIS   CLOUDY    59  55  87 S7        29.88F FOG

$$
MIZ043>046-050>051-056>058-064>065-071>073-077>080-221700-
SOUTHWEST LOWER MICHIGAN

CITY           SKY/WX    TMP DP  RH WIND       PRES   REMARKS
BATTLE CREEK   CLOUDY    57  53  86 SW10      29.83R FOG
BENTON HARBOR  CLOUDY    59  53  80 W10       29.80S HAZE
COLDWATER*     CLOUDY    56  55  93 SW9       29.83S FOG
HILLSDALE*     CLOUDY    54  52  94 S6        29.83S FOG
HOLLAND        CLOUDY    57  53  86 SW13G22   29.79F FOG
GRAND RAPIDS   CLOUDY    55  52  89 SW9       29.79F FOG
KALAMAZOO      CLOUDY    57  52  83 S9        29.82S HAZE
STURGIS*       CLOUDY    55  54  94 SW12      29.82S FOG
THREE RIVERS*  CLOUDY    54  54 100 SW8       29.83R FOG

$$
OHZ001>008-015>018-024>025-221700-
NORTHWEST OHIO

CITY           SKY/WX    TMP DP  RH WIND       PRES   REMARKS
DEFIANCE       CLOUDY    57  53  86 SW9       29.85F FOG
FINDLAY        CLOUDY    60  53  77 S12       29.87S
TOLEDO EXPRESS CLOUDY    59  55  87 S10       29.85F
TOLEDO METCALF CLOUDY    61  56  83 SW13      29.86F HAZE
LIMA           CLOUDY    58  56  93 S9        29.88F

$$
AND FOR LAKE MICHIGAN COASTAL AND OPEN LAKE BUOY OBSERVATIONS

STATION/POSITION TEMP    WIND        PRES    VSBY  WAVE
                 AIR SEA DIR/SP/G                  HT/PER
                 (F)     (DEG/KT/KT) (MB)    (MI)  (FT/S)
CALUMET HARBOR    55     200/ 11/ 13 1008.5S
MICHIGAN CITY     56     180/  7/ 10   N/A
BURNS HARBOR      54     190/ 12/ 14 1009.8S

$$
&&




USA.gov is the U.S. government's official web portal to all federal, state and local government web resources and services.